Location: Mesa Vista Observatory
(35.5777°N, 105.6987°W)
Time: 21:56:22
(UTC-06:00)

Vanguard 1 Rocket - All Passes

Search period start: 20 September 2020 00:00
Search period end: 30 September 2020 00:00
Orbit: 655 x 4222 km, 34.3° (Epoch: 20 September)

Date Brightness Start Highest point End Pass type
(mag) Time Alt. Az. Time Alt. Az. Time Alt. Az.
20 Sep - 01:24:31 10° WNW 01:50:36 70° SSW 02:10:20 10° SE visible
20 Sep - 03:59:29 10° WNW 04:19:43 34° SW 04:33:29 10° S visible
20 Sep - 16:54:31 10° SSE 17:03:06 20° SE 17:15:11 10° E daylight
20 Sep - 19:14:23 10° SW 19:29:05 59° SSE 19:53:24 10° ENE visible
20 Sep - 21:40:18 10° WSW 22:00:43 85° S 22:27:17 10° E visible
21 Sep - 00:09:58 10° W 00:35:18 80° SSW 00:58:01 10° ESE visible
21 Sep - 02:42:46 10° WNW 03:06:53 50° SW 03:23:50 10° SSE visible
21 Sep - 05:24:07 10° W 05:33:13 14° WSW 05:40:42 10° SSW visible
21 Sep - 18:04:24 10° SSW 18:16:28 42° SE 18:36:49 10° ENE daylight
21 Sep - 20:28:14 10° WSW 20:45:31 78° SSE 21:12:01 10° E visible
21 Sep - 22:56:15 10° W 23:19:23 86° S 23:44:37 10° ESE visible
22 Sep - 01:27:20 10° WNW 01:52:53 64° SSW 02:12:53 10° SE visible
22 Sep - 04:03:04 10° W 04:21:29 28° SW 04:34:54 10° S visible
22 Sep - 16:55:45 10° S 17:04:59 26° SE 17:19:13 10° E daylight
22 Sep - 19:17:04 10° SW 19:31:27 66° SSE 19:56:06 10° ENE visible
22 Sep - 21:43:20 10° W 22:03:29 87° S 22:30:09 10° E visible
23 Sep - 00:12:53 10° W 00:37:48 76° SSW 01:00:45 10° ESE visible
23 Sep - 02:45:47 10° WNW 03:08:49 42° SW 03:25:50 10° SSE visible
23 Sep - 15:51:02 10° SE 15:54:16 11° ESE 15:58:01 10° ESE daylight
23 Sep - 18:06:47 10° SSW 18:18:38 50° SE 18:39:39 10° ENE daylight
23 Sep - 20:31:14 10° WSW 20:48:12 82° SSE 21:14:47 10° E visible
23 Sep - 22:59:16 10° W 23:22:05 83° SSW 23:47:27 10° ESE visible
24 Sep - 01:30:12 10° WNW 01:55:02 57° SW 02:15:13 10° SE visible
24 Sep - 04:07:18 10° W 04:23:12 22° SW 04:35:39 10° SSW visible
24 Sep - 16:57:34 10° S 17:06:59 32° SE 17:22:39 10° ENE daylight
24 Sep - 19:19:55 10° WSW 19:33:59 72° SSE 19:58:46 10° E visible
24 Sep - 21:46:25 10° W 22:06:16 87° S 22:33:00 10° E visible
25 Sep - 00:15:48 10° WNW 00:40:12 70° SSW 01:03:19 10° SE visible
25 Sep - 02:49:03 10° WNW 03:10:38 36° SW 03:27:28 10° SSE visible
25 Sep - 15:50:21 10° SSE 15:56:15 16° ESE 16:04:13 10° E daylight
25 Sep - 18:09:24 10° SW 18:20:58 57° SSE 18:42:23 10° ENE daylight
25 Sep - 20:34:19 10° WSW 20:51:00 85° S 21:17:34 10° E visible
25 Sep - 23:02:17 10° W 23:24:41 80° SSW 23:50:10 10° ESE visible
26 Sep - 01:33:11 10° WNW 01:57:03 50° SW 02:17:17 10° SSE visible
26 Sep - 04:12:46 10° W 04:24:55 16° WSW 04:35:13 10° SSW visible
26 Sep - 16:59:48 10° SSW 17:09:09 39° SE 17:25:45 10° ENE daylight
26 Sep - 19:22:55 10° WSW 19:36:41 78° SSE 20:01:27 10° E visible
26 Sep - 21:49:32 10° W 22:09:03 85° S 22:35:47 10° ESE visible
27 Sep - 00:18:44 10° WNW 00:42:29 63° SSW 01:05:40 10° SE visible
27 Sep - 02:52:42 10° W 03:12:24 29° SW 03:28:38 10° S visible
27 Sep - 15:51:31 10° S 15:58:18 22° SE 16:08:31 10° E daylight
27 Sep - 18:12:13 10° SW 18:23:29 65° SSE 18:45:03 10° ENE daylight
27 Sep - 20:37:27 10° W 20:53:50 87° S 21:20:20 10° E visible
27 Sep - 23:05:18 10° W 23:27:14 75° SSW 23:52:43 10° ESE visible
28 Sep - 01:36:20 10° WNW 01:58:59 43° SW 02:19:01 10° SSE visible
28 Sep - 04:21:53 10° WSW 04:26:43 11° WSW 04:31:16 10° SW visible
28 Sep - 17:02:18 10° SSW 17:11:28 46° SE 17:28:38 10° ENE daylight
28 Sep - 19:26:01 10° WSW 19:39:29 82° SSE 20:04:09 10° E visible
28 Sep - 21:52:38 10° W 22:11:47 82° SSW 22:38:29 10° ESE visible
29 Sep - 00:21:45 10° WNW 00:44:39 56° SSW 01:07:46 10° SE visible
29 Sep - 02:57:02 10° W 03:14:10 23° SW 03:29:05 10° S visible
29 Sep - 15:53:23 10° S 16:00:29 28° SE 16:12:07 10° E daylight
29 Sep - 18:15:11 10° WSW 18:26:11 72° SSE 18:47:43 10° E daylight
29 Sep - 20:40:37 10° W 20:56:43 86° S 21:23:05 10° E visible
29 Sep - 23:08:19 10° WNW 23:29:40 69° SSW 23:55:05 10° SE visible
